This is the latest recevied weather packets stored in our database for station/object W1BKW. If no packets are shown the sender has not sent any weather packets the latest 10 day(s).
| Time | Temp. | Humidity | Pressure | Rain* | Wind** | Luminosity | Snow |
|---|---|---|---|---|---|---|---|
| 1777958245 | 6.67° C | 98% | 1006.3 hPa | 0 mm | - | 0 W/m² | - |
| 1777957344 | 6.67° C | 96% | 1006.1 hPa | 0 mm | - | 0 W/m² | - |
| 1777956440 | 6.67° C | 95% | 1005.8 hPa | 0 mm | - | 0 W/m² | - |
| 1777955535 | 7.22° C | 97% | 1005.8 hPa | 0 mm | - | 0 W/m² | - |
| 1777954632 | 7.78° C | 95% | 1005.7 hPa | 0 mm | - | 0 W/m² | - |
| 1777953729 | 7.78° C | 91% | 1005.7 hPa | 0 mm | - | 0 W/m² | - |
| 1777952824 | 8.33° C | 90% | 1005.4 hPa | 0 mm | - | 0 W/m² | - |
| 1777951922 | 8.33° C | 90% | 1005.3 hPa | 0 mm | - | 0 W/m² | - |
| 1777951018 | 8.33° C | 90% | 1005.3 hPa | 0 mm | - | 0 W/m² | - |
| 1777950119 | 8.89° C | 89% | 1005.3 hPa | 0 mm | - | 0 W/m² | - |
| 1777949217 | 8.89° C | 88% | 1005.6 hPa | 0 mm | - | 0 W/m² | - |
| 1777948314 | 9.44° C | 88% | 1005.5 hPa | 0 mm | - | 0 W/m² | - |
| 1777947411 | 10° C | 91% | 1005.6 hPa | 0 mm | - | 0 W/m² | - |
| 1777946511 | 10° C | 93% | 1005.7 hPa | 0 mm | - | 0 W/m² | - |
| 1777945608 | 10° C | 94% | 1005.4 hPa | 0 mm | - | 0 W/m² | - |
| 1777944705 | 10.56° C | 93% | 1005.4 hPa | 0 mm | - | 0 W/m² | - |
| 1777943801 | 10.56° C | 91% | 1005.2 hPa | 0 mm | - | 0 W/m² | - |
| 1777942896 | 10.56° C | 88% | 1005.1 hPa | 0 mm | - | 0 W/m² | - |
| 1777941992 | 10.56° C | 90% | 1005 hPa | 0 mm | - | 0 W/m² | - |
| 1777941090 | 11.67° C | 88% | 1004.9 hPa | 0 mm | - | 0 W/m² | - |
| 1777940186 | 11.67° C | 84% | 1004.4 hPa | 0 mm | - | 0 W/m² | - |
| 1777939285 | 12.22° C | 88% | 1004.3 hPa | 0 mm | - | 0 W/m² | - |
| 1777938380 | 13.33° C | 76% | 1004.2 hPa | 0 mm | - | 1 W/m² | - |
| 1777937481 | 13.89° C | 76% | 1003.6 hPa | 0 mm | - | 5 W/m² | - |
| 1777936578 | 15.56° C | 67% | 1003.6 hPa | 0 mm | - | 13 W/m² | - |
* Rain latest hour (hover to see other rain measurements)
** Current wind speed in m/s (hover to see current wind gust speed)